Temperature
10 10 10 10 10 10 10 10 10 10 10 10 10 10 9 9 9 9 9 8 8 8 8 7 7 7 7 7 7 7 6 6 6 5 5 4 4 4 4 4 3 3 3
9 9 9 9 9 10 9 9 9 9 9 9 9 9 8 8 8 8 8 7 7 7 7 7 6 6 6 6 6 6 5 5 5 4 4 4 3 3 3 3 2 2 2
9 9 9 9 9 8 8 8 8 8 8 8 8 7 7 7 7 7 7 7 6 6 6 6 6 6 5 5 5 5 5 4 4 3 3 3 2 2 2 2 1 1 1
8 8 8 8 8 7 7 7 7 7 7 7 7 7 7 7 6 6 6 6 6 5 5 5 5 5 4 4 4 4 3 3 3 2 2 2 1 1 1 0 0 0 -0
7 7 7 7 6 6 6 6 6 6 6 6 6 6 6 6 6 5 5 5 5 4 4 4 4 4 3 3 3 3 2 2 2 1 1 1 0 -0 -0 -0 -1 -1 -1
6 6 6 5 5 5 5 5 5 5 5 5 5 5 5 5 5 4 4 4 4 3 3 3 3 2 2 2 2 2 1 1 1 0 0 -0 -1 -1 -1 -2 -2 -2 -2
5 5 5 4 4 4 4 4 4 4 4 4 4 4 4 4 4 3 3 3 3 2 2 2 2 2 1 1 1 1 0 -0 -0 -1 -1 -1 -2 -2 -2 -2 -3 -3 -3
5 4 4 4 4 3 3 3 3 3 3 3 3 3 3 3 2 2 2 2 2 2 1 1 1 1 1 0 0 -0 -1 -1 -1 -1 -2 -2 -3 -3 -3 -4 -4 -4 -4
4 4 3 3 3 3 2 2 2 2 2 2 2 2 2 2 1 1 1 1 1 1 1 1 0 0 -0 -1 -1 -1 -1 -2 -2 -2 -3 -3 -3 -4 -4 -4 -4 -5 -4
3 3 3 3 2 2 2 2 2 1 1 1 1 1 1 1 1 0 0 1 0 0 -0 -0 -1 -1 -1 -2 -2 -2 -2 -2 -3 -3 -3 -4 -4 -4 -4 -5 -5 -5 -5
3 2 2 2 2 2 2 1 1 1 0 0 0 0 0 0 0 -0 -0 -0 -0 -0 -1 -1 -1 -2 -2 -2 -2 -3 -3 -3 -3 -3 -4 -4 -4 -4 -5 -5 -5 -5 -6
2 2 2 2 1 1 1 1 1 0 0 0 -0 -0 -0 -0 -0 -1 -1 -1 -1 -1 -1 -1 -2 -2 -2 -3 -3 -3 -4 -4 -4 -4 -4 -4 -5 -5 -5 -5 -5 -6 -6
2 2 1 1 1 1 1 0 0 -0 -0 -0 -0 -0 -0 -1 -1 -1 -1 -1 -1 -2 -2 -2 -2 -3 -3 -3 -3 -4 -4 -4 -4 -4 -4 -5 -5 -5 -5 -5 -5 -6 -6
2 1 1 1 1 0 0 0 0 -0 -0 -0 -0 -1 -1 -1 -1 -1 -1 -2 -2 -2 -2 -2 -3 -3 -3 -3 -4 -4 -4 -4 -4 -5 -5 -5 -5 -5 -5 -6 -6 -6 -5
1 1 1 1 0 0 0 -0 -0 -0 -0 -0 -0 -1 -1 -1 -1 -2 -2 -2 -2 -2 -2 -3 -3 -3 -3 -4 -4 -4 -4 -5 -5 -5 -5 -5 -6 -6 -6 -6 -6 -6 -6
1 1 1 0 0 0 -0 -0 -0 -0 -0 -1 -1 -1 -1 -1 -1 -2 -2 -2 -2 -3 -3 -3 -3 -3 -4 -4 -4 -4 -5 -5 -5 -5 -6 -6 -6 -6 -6 -6 -7 -7 -7
1 1 1 0 0 -0 -0 -0 -0 -0 -1 -1 -1 -1 -1 -1 -1 -2 -2 -2 -2 -3 -3 -3 -3 -4 -4 -4 -4 -4 -5 -5 -5 -6 -6 -6 -6 -7 -7 -7 -7 -7 -7
1 1 0 0 -0 -0 -0 -1 -1 -1 -1 -1 -1 -1 -1 -1 -2 -2 -2 -2 -2 -3 -3 -3 -3 -4 -4 -4 -5 -5 -5 -5 -6 -6 -6 -6 -7 -7 -7 -7 -7 -8 -8
0 0 0 0 -0 -0 -1 -1 -1 -1 -1 -1 -1 -1 -1 -2 -2 -2 -2 -2 -2 -3 -3 -3 -4 -4 -4 -4 -5 -5 -5 -5 -6 -6 -6 -7 -7 -7 -7 -8 -8 -8 -8
0 0 -0 -0 -0 -1 -1 -1 -1 -1 -1 -1 -1 -1 -2 -2 -2 -2 -2 -2 -3 -3 -3 -3 -4 -4 -4 -5 -5 -5 -5 -5 -6 -6 -6 -7 -7 -7 -8 -8 -8 -8 -8
0 -0 -0 -0 -0 -1 -1 -1 -1 -1 -1 -1 -1 -1 -2 -2 -2 -2 -2 -3 -3 -3 -3 -3 -4 -4 -4 -5 -5 -5 -5 -5 -6 -6 -7 -7 -7 -8 -8 -8 -8 -8 -9
-0 -0 -1 -0 -0 -1 -1 -1 -1 -1 -1 -1 -1 -1 -2 -2 -2 -2 -2 -3 -3 -3 -3 -4 -4 -4 -4 -5 -5 -5 -5 -6 -6 -7 -7 -7 -7 -8 -8 -8 -8 -9 -9
-0 -1 -1 -1 -1 -1 -1 -1 -1 -1 -1 -1 -1 -1 -1 -2 -2 -2 -2 -3 -3 -3 -3 -4 -4 -4 -4 -5 -5 -5 -6 -6 -6 -7 -7 -7 -7 -8 -8 -8 -9 -9 -9
-1 -1 -1 -1 -1 -1 -1 -1 -1 -1 -1 -1 -2 -2 -2 -2 -2 -2 -3 -3 -3 -3 -4 -4 -4 -4 -5 -5 -5 -5 -6 -6 -7 -7 -7 -8 -8 -8 -8 -8 -9 -9 -9
-1 -1 -1 -1 -1 -2 -2 -1 -1 -1 -2 -2 -2 -2 -2 -2 -2 -3 -3 -3 -3 -4 -4 -4 -4 -5 -5 -5 -5 -6 -6 -6 -7 -7 -8 -8 -8 -8 -8 -9 -9 -9 -9
-2 -2 -2 -2 -2 -2 -2 -2 -2 -2 -2 -2 -2 -3 -3 -3 -3 -3 -3 -3 -3 -4 -4 -4 -4 -5 -5 -5 -5 -6 -6 -6 -7 -7 -8 -8 -8 -8 -9 -9 -9 -9 -9
Wind_Speed
4 4 4 4 4 4 4 3 3 3 3 3 3 3 3 3 3 3 3 3 3 3 3 3 3 2 2 2 2 1 1 1 2 1 2 2 2 2 3 3 2 1 3
3 4 4 4 4 5 5 4 4 4 4 4 4 4 4 4 4 4 4 4 4 4 4 4 4 4 4 3 3 3 2 2 1 1 1 2 2 1 2 2 2 2 3
4 5 5 4 4 4 4 4 5 5 5 5 5 5 5 5 5 5 5 5 6 5 5 5 4 5 5 4 4 4 3 3 2 2 2 1 1 1 1 1 2 2 3
4 5 4 4 4 4 4 5 5 5 5 5 6 6 5 6 6 6 6 7 7 7 6 6 5 5 5 4 4 4 3 4 3 3 2 1 1 1 1 1 2 2 2
5 5 4 4 4 5 5 5 5 5 5 5 6 6 5 5 5 6 6 7 7 7 7 6 5 6 7 5 4 3 3 3 3 2 2 1 1 1 1 1 1 2 2
5 4 4 4 4 4 4 5 5 5 5 5 5 5 5 5 8 9 8 6 6 7 6 6 5 6 7 8 8 6 4 3 2 1 1 0 1 1 0 0 1 2 3
5 5 5 5 5 4 5 5 5 5 5 5 5 5 6 7 9 10 10 7 6 6 5 4 4 5 6 5 6 7 6 6 3 2 2 2 2 2 1 1 1 2 3
5 5 5 5 5 5 5 5 4 4 4 4 4 5 5 6 9 10 10 7 6 5 4 4 4 3 2 4 4 4 4 4 3 1 2 2 3 3 3 2 2 2 3
6 6 6 6 6 6 5 5 4 4 4 3 4 4 5 5 7 8 8 5 5 4 3 3 3 2 2 4 3 2 2 3 4 3 2 2 3 3 2 1 0 1 3
6 6 6 6 6 6 6 5 4 4 4 4 4 3 3 3 5 6 7 4 4 3 2 2 2 1 2 2 2 1 1 2 1 2 3 4 4 4 2 1 2 2 2
6 6 6 6 6 6 5 4 5 5 5 4 4 3 2 2 3 5 5 3 3 2 1 1 2 3 3 2 1 1 3 1 0 0 1 2 2 2 2 1 2 3 3
6 6 6 6 5 5 6 5 5 5 5 4 3 2 1 1 1 2 3 3 3 3 1 1 2 3 3 3 2 3 3 1 1 0 1 2 2 2 2 3 4 6 7
7 6 6 6 5 6 6 6 5 5 4 4 3 3 1 1 1 1 2 2 2 2 2 2 3 3 3 2 3 4 2 1 0 1 2 3 2 3 3 3 4 6 8
7 6 6 6 6 5 5 5 5 5 5 5 4 4 3 2 2 1 1 1 1 1 1 2 2 3 2 3 3 2 1 1 2 2 3 3 2 2 3 3 3 3 4
7 6 6 6 6 6 5 5 6 5 6 6 5 5 5 4 5 6 4 3 3 3 2 1 0 1 2 2 2 2 2 2 2 2 2 3 4 4 4 3 3 3 4
7 7 6 6 5 5 5 3 6 6 8 9 8 7 6 6 6 7 7 7 6 5 2 2 2 3 3 3 3 3 3 3 3 3 3 4 4 5 5 4 4 5 7
8 7 6 6 6 6 5 5 4 4 6 8 9 9 9 8 8 7 7 7 7 6 3 3 4 4 4 4 4 4 4 4 3 4 5 5 5 5 6 6 6 6 8
7 8 7 6 6 6 6 6 5 5 4 3 5 9 9 9 9 8 8 6 4 4 3 4 5 5 5 5 5 5 5 5 4 5 5 6 6 6 6 7 7 7 8
7 6 6 6 6 6 5 5 5 5 5 4 3 4 8 8 9 9 8 4 5 5 5 5 6 6 6 6 6 6 6 6 6 5 6 7 6 6 7 8 8 12 11
6 9 8 6 6 6 6 6 6 6 5 5 5 5 3 4 4 5 5 5 5 6 6 6 6 6 6 6 6 6 6 6 7 6 7 7 7 7 9 10 9 9 9
5 7 10 7 6 7 7 7 7 6 6 6 6 7 8 6 6 6 6 6 7 7 7 7 6 6 6 6 6 7 8 7 7 7 7 7 7 8 8 9 10 10 10
4 5 6 6 6 7 7 7 7 7 7 7 6 6 11 7 6 6 7 7 7 7 6 6 7 7 6 7 7 7 7 8 8 8 8 8 8 9 9 9 10 10 11
4 4 5 5 5 8 8 6 7 7 7 7 6 6 6 7 7 7 7 7 6 6 7 7 7 7 8 10 10 8 9 9 9 8 8 9 9 9 9 10 12 13 13
4 5 5 5 5 5 6 6 7 7 7 7 7 7 7 7 7 8 7 6 6 6 7 8 9 10 12 11 12 13 14 15 14 12 12 11 11 10 11 11 13 14 14
4 4 5 5 5 5 5 6 6 6 6 6 6 6 6 7 7 7 7 6 7 7 8 9 9 11 13 14 14 15 17 19 18 16 13 10 12 13 13 13 13 14 15
3 4 4 4 5 5 5 5 5 6 6 6 6 6 6 6 7 7 6 6 7 7 8 8 11 13 14 15 17 18 20 20 20 20 16 11 12 12 13 13 15 15 16
Wind_Direction
93 90 89 80 77 80 78 68 60 51 50 58 63 67 66 57 60 80 79 82 93 82 76 93 85 75 84 69 66 68 55 199 220 117 63 35 36 40 32 49 56 17 325
106 100 93 85 80 77 70 60 62 62 56 61 70 72 68 64 61 77 86 83 91 89 82 86 80 80 75 63 68 66 54 44 142 156 77 41 40 37 36 38 36 17 345
110 105 96 87 84 80 74 66 64 65 62 60 68 73 71 72 73 75 84 85 83 82 82 85 83 87 79 70 70 69 58 53 63 107 96 58 46 36 38 26 26 7 345
118 113 106 98 94 89 81 73 69 71 71 68 70 72 72 74 77 81 87 88 85 78 74 77 81 91 98 93 81 76 75 70 67 83 87 66 52 30 53 20 347 346 326
128 124 121 111 101 94 87 81 77 76 78 78 80 79 80 82 87 93 91 93 90 83 72 67 71 85 98 100 99 97 93 85 82 83 85 60 26 9 357 352 321 326 309
140 139 130 122 113 107 102 96 89 83 80 80 78 80 77 85 100 102 103 93 91 90 83 70 65 62 71 76 81 84 89 95 105 111 106 137 251 247 235 297 329 356 321
149 144 141 136 130 126 121 108 100 92 88 84 80 81 81 89 98 101 104 98 93 89 86 78 70 64 62 61 66 61 49 51 76 133 159 209 223 220 196 259 260 245 259
156 155 154 149 143 137 129 122 115 105 100 94 88 86 87 93 99 102 103 94 89 82 81 84 80 52 67 92 82 58 38 24 29 84 175 217 228 222 202 201 224 270 276
169 171 167 162 157 153 148 141 128 119 111 102 98 94 92 95 104 110 109 100 91 77 66 69 81 53 57 84 92 71 27 353 8 26 21 336 319 306 263 134 128 322 308
182 177 169 166 165 163 157 146 134 131 128 120 107 100 104 104 114 118 119 112 101 84 57 40 43 32 13 63 117 122 309 296 325 359 7 3 360 353 357 152 178 197 259
170 164 164 165 165 160 151 145 142 138 132 128 121 105 95 104 117 122 128 124 131 125 97 8 329 343 342 343 28 196 261 279 157 319 320 326 336 346 349 323 204 193 219
159 162 164 163 164 159 152 149 148 149 147 147 143 135 87 51 103 139 142 147 150 148 180 254 285 319 326 325 326 293 307 14 85 328 307 305 307 304 297 295 277 254 241
162 167 165 162 161 160 163 162 160 163 166 171 175 181 194 212 260 196 176 172 171 164 213 258 294 319 333 335 317 317 348 61 266 279 283 280 271 272 284 296 289 278 272
171 172 169 168 168 168 173 176 178 182 184 187 193 200 206 219 232 230 218 216 220 227 252 285 314 330 336 316 318 335 333 251 248 251 269 275 277 277 279 278 286 300 299
177 177 176 178 177 179 185 193 194 201 197 196 201 197 197 219 229 217 202 205 203 214 203 183 309 310 306 301 293 282 275 284 282 269 271 282 286 285 284 277 269 276 277
183 184 184 182 181 181 184 199 216 211 218 220 214 207 217 224 230 229 232 233 237 240 229 215 244 252 258 266 272 275 264 258 256 257 263 265 274 279 283 280 269 271 276
191 188 186 186 186 188 191 194 200 215 225 228 226 224 224 228 233 235 237 240 243 243 233 234 243 248 251 254 256 255 257 255 249 251 257 260 264 270 273 275 274 274 276
195 194 191 192 190 192 196 197 196 199 211 232 236 234 234 235 235 237 239 241 244 234 222 235 244 246 247 249 251 254 258 260 253 252 255 257 257 263 269 269 269 269 276
197 198 194 189 188 193 194 196 199 205 213 219 224 243 238 238 238 239 234 220 227 235 235 239 240 242 245 246 248 248 249 254 255 254 257 256 255 257 264 265 268 273 276
204 202 192 189 191 194 197 200 205 210 216 220 226 227 215 213 224 233 225 220 229 238 240 242 243 241 241 242 244 245 250 253 254 253 255 255 254 254 261 265 267 269 270
202 202 199 197 199 201 204 208 209 210 218 226 232 228 217 214 225 229 230 230 232 237 239 241 244 244 241 240 240 243 248 253 252 252 255 256 256 259 262 264 265 266 269
201 201 201 205 206 206 210 211 211 215 221 230 238 238 237 228 227 233 236 238 236 234 233 236 242 242 237 236 237 242 248 254 254 253 254 256 256 259 261 263 265 267 268
206 206 209 212 211 215 216 214 215 219 226 230 232 231 231 230 232 235 238 241 239 238 238 236 241 247 248 245 241 235 242 249 250 248 252 258 259 259 260 261 263 267 268
212 215 217 217 216 217 218 218 219 223 227 230 232 233 233 234 237 240 241 242 241 244 244 242 245 248 250 254 252 248 247 251 253 252 248 253 258 261 261 262 264 265 267
222 223 222 221 220 223 227 227 227 228 230 231 233 236 238 238 240 242 243 241 243 246 248 250 253 255 256 256 257 258 260 263 263 261 256 254 258 259 262 264 265 268 268
233 234 232 227 226 227 228 231 234 234 235 236 237 239 240 241 244 246 245 245 247 249 253 255 255 257 261 264 265 266 270 272 272 271 268 264 263 264 265 268 269 268 271
Height
1487 1488 1489 1490 1491 1492 1492 1493 1493 1493 1493 1493 1493 1494 1494 1494 1494 1494 1495 1495 1495 1495 1496 1496 1497 1497 1497 1497 1497 1497 1497 1497 1496 1496 1495 1495 1495 1495 1495 1494 1494 1494 1494
1484 1485 1486 1487 1487 1488 1488 1489 1489 1489 1489 1489 1489 1489 1490 1490 1490 1490 1490 1491 1491 1491 1492 1492 1492 1492 1492 1492 1492 1492 1492 1492 1492 1491 1491 1491 1490 1490 1490 1490 1490 1489 1489
1481 1482 1483 1483 1484 1484 1485 1485 1485 1485 1485 1485 1485 1486 1486 1486 1487 1487 1487 1487 1487 1488 1488 1488 1488 1489 1488 1489 1488 1488 1488 1488 1488 1487 1487 1487 1486 1486 1486 1485 1485 1485 1485
1479 1479 1480 1480 1481 1481 1481 1482 1482 1482 1482 1482 1482 1482 1483 1483 1483 1483 1484 1484 1484 1484 1485 1485 1485 1485 1485 1485 1485 1485 1485 1485 1484 1484 1484 1483 1483 1482 1482 1482 1481 1481 1480
1476 1477 1477 1478 1478 1478 1478 1479 1479 1479 1479 1479 1480 1480 1480 1480 1481 1481 1481 1481 1481 1482 1482 1482 1482 1483 1482 1482 1482 1482 1482 1482 1481 1481 1481 1480 1480 1479 1479 1478 1477 1476 1476
1474 1474 1474 1475 1475 1475 1476 1476 1476 1477 1477 1477 1477 1478 1478 1478 1478 1478 1479 1479 1479 1480 1480 1480 1480 1480 1480 1480 1480 1480 1480 1480 1479 1479 1478 1478 1477 1476 1475 1475 1474 1473 1472
1471 1471 1472 1472 1473 1473 1474 1474 1475 1475 1475 1475 1476 1476 1476 1476 1476 1477 1477 1477 1478 1478 1478 1478 1479 1479 1478 1478 1478 1478 1477 1477 1477 1476 1476 1475 1474 1473 1472 1471 1471 1470 1469
1468 1469 1469 1470 1471 1471 1472 1472 1473 1473 1474 1474 1474 1474 1475 1475 1475 1475 1476 1476 1476 1476 1477 1477 1477 1477 1476 1476 1476 1475 1475 1474 1474 1473 1473 1472 1471 1470 1469 1469 1468 1467 1466
1465 1466 1467 1468 1468 1469 1470 1471 1471 1472 1472 1472 1473 1473 1474 1474 1474 1474 1474 1475 1475 1475 1475 1475 1475 1475 1474 1474 1474 1473 1472 1472 1471 1470 1470 1469 1468 1467 1466 1466 1465 1464 1462
1463 1464 1464 1465 1466 1467 1468 1469 1469 1470 1470 1471 1472 1472 1473 1473 1473 1473 1473 1473 1473 1474 1474 1474 1473 1473 1472 1472 1471 1470 1470 1469 1468 1467 1467 1466 1465 1464 1464 1463 1462 1461 1459
1460 1461 1462 1463 1464 1465 1466 1467 1468 1468 1469 1470 1470 1471 1472 1472 1472 1472 1472 1472 1472 1472 1472 1472 1471 1471 1470 1469 1469 1468 1467 1466 1465 1464 1464 1463 1462 1461 1460 1459 1459 1458 1456
1457 1458 1459 1460 1461 1463 1464 1465 1466 1467 1467 1468 1469 1470 1470 1470 1471 1471 1471 1470 1470 1470 1470 1469 1469 1468 1468 1467 1466 1465 1464 1463 1462 1461 1461 1460 1459 1458 1457 1456 1455 1454 1452
1454 1455 1457 1458 1459 1460 1461 1463 1464 1465 1466 1466 1467 1468 1468 1469 1469 1469 1469 1469 1468 1468 1468 1467 1467 1466 1465 1464 1463 1462 1461 1460 1459 1458 1457 1456 1455 1454 1453 1452 1451 1449 1448
1451 1453 1454 1455 1456 1458 1459 1460 1461 1462 1463 1464 1465 1466 1466 1467 1467 1467 1467 1466 1466 1466 1465 1465 1464 1463 1462 1461 1460 1459 1458 1457 1456 1455 1454 1453 1451 1450 1449 1447 1446 1444 1442
1449 1450 1451 1453 1454 1455 1457 1458 1459 1460 1461 1462 1463 1464 1464 1464 1465 1464 1464 1464 1463 1463 1462 1462 1461 1460 1459 1458 1457 1456 1455 1454 1452 1451 1450 1448 1447 1446 1444 1442 1440 1438 1436
1446 1447 1448 1450 1451 1452 1454 1455 1456 1457 1458 1459 1460 1461 1461 1462 1462 1461 1461 1461 1460 1460 1459 1458 1457 1457 1455 1454 1453 1452 1451 1450 1448 1447 1445 1444 1442 1440 1439 1437 1435 1433 1430
1442 1444 1445 1446 1448 1449 1450 1452 1453 1454 1455 1456 1457 1457 1458 1458 1458 1458 1458 1457 1457 1456 1455 1454 1454 1453 1452 1450 1449 1448 1447 1446 1444 1442 1441 1439 1437 1435 1433 1431 1429 1427 1424
1439 1440 1442 1443 1444 1446 1447 1448 1449 1450 1451 1452 1454 1454 1454 1454 1454 1454 1454 1454 1453 1452 1451 1450 1450 1449 1447 1446 1445 1443 1442 1440 1439 1437 1435 1433 1431 1429 1427 1425 1423 1420 1417
1435 1436 1438 1439 1440 1442 1443 1444 1446 1447 1448 1449 1449 1450 1450 1450 1450 1450 1450 1449 1448 1448 1447 1446 1445 1444 1443 1441 1440 1438 1437 1435 1433 1431 1429 1428 1425 1423 1420 1418 1416 1413 1411
1431 1432 1434 1435 1436 1438 1439 1440 1441 1442 1443 1444 1445 1446 1446 1446 1445 1445 1445 1444 1443 1443 1442 1441 1440 1439 1438 1436 1434 1433 1431 1429 1427 1425 1423 1421 1419 1416 1414 1411 1409 1406 1403
1427 1428 1430 1431 1432 1433 1434 1435 1437 1438 1439 1439 1440 1441 1441 1441 1440 1440 1440 1439 1438 1437 1437 1436 1435 1433 1432 1430 1428 1426 1424 1423 1421 1419 1416 1414 1412 1409 1407 1404 1401 1399 1396
1423 1424 1425 1426 1428 1429 1430 1431 1432 1433 1433 1434 1435 1435 1435 1435 1435 1434 1434 1433 1433 1432 1431 1430 1428 1427 1426 1424 1422 1420 1418 1416 1414 1411 1409 1406 1404 1401 1399 1396 1393 1391 1388
1419 1420 1421 1422 1423 1424 1425 1426 1427 1427 1428 1429 1429 1429 1429 1429 1429 1428 1428 1427 1427 1426 1425 1423 1422 1421 1419 1417 1415 1413 1411 1408 1407 1404 1401 1399 1396 1393 1391 1388 1385 1382 1380
1415 1415 1416 1417 1418 1419 1420 1420 1421 1422 1422 1423 1423 1423 1423 1422 1422 1422 1421 1420 1420 1419 1418 1417 1415 1414 1412 1410 1408 1406 1403 1401 1399 1396 1394 1391 1388 1385 1383 1380 1377 1374 1371
1411 1411 1412 1412 1413 1414 1414 1415 1416 1416 1416 1416 1416 1416 1416 1416 1415 1415 1414 1413 1412 1411 1410 1409 1408 1406 1404 1402 1400 1398 1396 1394 1391 1388 1386 1383 1380 1377 1374 1372 1369 1366 1363
1406 1407 1407 1408 1408 1409 1409 1409 1410 1410 1410 1410 1410 1410 1410 1409 1408 1408 1407 1406 1405 1404 1403 1401 1400 1398 1396 1394 1392 1390 1388 1385 1383 1381 1378 1375 1372 1369 1366 1363 1360 1357 1354